Weather History for Youngstown, OH

Change the Weather History Date:

Friday, April 8, 2011

  Actual Average Record
Temperature  
Mean Temperature 45 °F 46 °F  
Max Temperature 48 °F 56 °F 81 °F (2001)
Min Temperature 42 °F 36 °F 14 °F (1982)
Degree Days  
Heating Degree Days 20 19  
Month to date heating degree days 183 166  
Since 1 July heating degree days 6005 5690  
Cooling Degree Days 0 0  
Month to date cooling degree days 0 0  
Year to date cooling degree days 0 1  
Moisture  
Dew Point 40 °F    
Average Humidity 85    
Maximum Humidity 100    
Minimum Humidity 70    
Precipitation  
Precipitation 0.56 in 0.11 in 0.85 in (1957)
Month to date precipitation 1.95 0.92  
Year to date precipitation 14.27 8.56  
Snow  
Snow 0.00 in 0.20 in - ()
Month to date snowfall 0.6 1.5  
Since 1 July snowfall 118.7 61.2  
Snow Depth 0.00 in    
Sea Level Pressure  
Sea Level Pressure 30.00 in    
Wind  
Wind Speed 11 mph (East)    
Max Wind Speed 24 mph    
Max Gust Speed 31 mph    
Visibility 7 miles    
Events Rain    
T = Trace of Precipitation, MM = Missing Value Source: NWS Daily Summary

Daily Weather History Graph

Daily Weather History Graph

Search for Another Location

Airport:

Trip Planner

Search our weather history database for the weather conditions in past years. The results will help you decide how hot, cold, wet, or windy it might be!

Date:

Astronomy

Apr. 08, 2011 Rise Set
Actual Time 6:54 AM EDT 7:55 PM EDT
Civil Twilight 6:26 AM EDT 8:23 PM EDT
Nautical Twilight 5:53 AM EDT 8:56 PM EDT
Astronomical Twilight 5:18 AM EDT 9:32 PM EDT
Moon 9:35 AM EDT (4/8) 12:12 AM EDT (4/8)
Length of Visible Light 13h 56m
Length of Day
13h 00m
Waxing Crescent, 22% of the Moon is Illuminated
Apr 8
Waxing Crescent
Apr 11
First Quarter
Apr 17
Full
Apr 24
Last Quarter
May 3
New

Hourly Weather History & Observations

Time (EDT) Temp. Windchill Dew Point Humidity Pressure Visibility Wind Dir Wind Speed Gust Speed Precip Events Conditions
12:51 AM 45.0 °F 41.8 °F 36.0 °F 71% 30.12 in 10.0 mi ENE 5.8 mph - N/A   Overcast
1:51 AM 45.0 °F 41.8 °F 35.1 °F 68% 30.12 in 10.0 mi East 5.8 mph - N/A   Overcast
2:51 AM 45.0 °F 39.7 °F 35.1 °F 68% 30.10 in 10.0 mi East 10.4 mph - N/A   Overcast
3:51 AM 45.0 °F 41.8 °F 35.1 °F 68% 30.07 in 10.0 mi East 5.8 mph - 0.00 in Rain Light Rain
4:51 AM 44.1 °F 37.7 °F 37.0 °F 76% 30.05 in 10.0 mi ESE 12.7 mph - 0.03 in Rain Light Rain
5:51 AM 42.1 °F 36.1 °F 39.0 °F 89% 30.04 in 7.0 mi East 10.4 mph - 0.07 in Rain Light Rain
6:51 AM 42.1 °F 36.6 °F 39.0 °F 89% 30.04 in 4.0 mi ESE 9.2 mph - 0.12 in Rain Rain
7:33 AM 42.8 °F 38.0 °F 39.2 °F 87% 30.03 in 2.5 mi ESE 8.1 mph - 0.10 in Rain Rain
7:51 AM 42.1 °F 37.1 °F 39.9 °F 92% 30.06 in 2.0 mi East 8.1 mph - 0.14 in Rain Rain
8:20 AM 42.8 °F 37.5 °F 41.0 °F 93% 30.03 in 2.0 mi East 9.2 mph - 0.04 in Rain Light Rain
8:51 AM 43.0 °F 36.8 °F 41.0 °F 93% 30.04 in 2.0 mi East 11.5 mph - 0.08 in Rain Light Rain
9:00 AM 42.8 °F 36.6 °F 42.8 °F 100% 30.01 in 1.0 mi East 11.5 mph - 0.01 in Rain Light Rain
9:51 AM 43.0 °F 36.4 °F 42.1 °F 97% 30.01 in 1.5 mi East 12.7 mph - 0.03 in Rain Light Rain
10:13 AM 44.6 °F 38.4 °F 42.8 °F 93% 29.99 in 3.0 mi East 12.7 mph - 0.00 in Rain Light Rain
10:51 AM 45.0 °F 39.7 °F 43.0 °F 93% 29.99 in 5.0 mi East 10.4 mph - 0.00 in   Overcast
11:51 AM 48.0 °F - 44.1 °F 86% 29.98 in 7.0 mi ESE 17.3 mph 26.5 mph N/A   Overcast
12:51 PM 48.0 °F - 43.0 °F 83% 29.96 in 10.0 mi ESE 16.1 mph 26.5 mph 0.00 in Rain Light Rain
1:13 PM 48.2 °F - 42.8 °F 82% 29.95 in 5.0 mi East 16.1 mph 26.5 mph 0.01 in Rain Light Rain
1:30 PM 46.4 °F 40.4 °F 42.8 °F 87% 29.94 in 2.5 mi ESE 13.8 mph - 0.01 in Rain Light Rain
1:51 PM 46.0 °F 41.0 °F 43.0 °F 89% 29.96 in 2.5 mi East 10.4 mph 23.0 mph 0.03 in Rain Light Rain
2:08 PM 46.4 °F 40.7 °F 42.8 °F 87% 29.94 in 2.5 mi East 12.7 mph - 0.00 in Rain Light Rain
2:10 PM 46.4 °F 41.5 °F 42.8 °F 87% 29.94 in 2.5 mi East 10.4 mph - 0.01 in Rain Light Rain
2:26 PM 46.4 °F 40.1 °F 42.8 °F 87% 29.95 in 2.5 mi East 15.0 mph 20.7 mph 0.01 in Rain Light Rain
2:51 PM 45.0 °F 38.9 °F 43.0 °F 93% 29.96 in 2.0 mi East 12.7 mph - 0.04 in Rain Light Rain
3:13 PM 44.6 °F 38.4 °F 42.8 °F 93% 29.95 in 5.0 mi East 12.7 mph - 0.02 in Rain Light Rain
3:51 PM 45.0 °F 39.7 °F 42.1 °F 90% 29.96 in 10.0 mi East 10.4 mph - 0.02 in Rain Light Rain
4:51 PM 45.0 °F 37.9 °F 42.1 °F 90% 29.95 in 10.0 mi East 16.1 mph - 0.00 in   Overcast
5:04 PM 44.6 °F 37.8 °F 41.0 °F 87% 29.94 in 10.0 mi East 15.0 mph - N/A   Overcast
5:41 PM 44.6 °F 37.8 °F 41.0 °F 87% 29.93 in 10.0 mi ESE 15.0 mph 21.9 mph N/A   Overcast
5:51 PM 45.0 °F 38.5 °F 39.9 °F 82% 29.96 in 10.0 mi East 13.8 mph 23.0 mph N/A   Overcast
6:51 PM 44.1 °F 39.0 °F 39.9 °F 85% 30.01 in 10.0 mi East 9.2 mph - N/A   Overcast
7:51 PM 44.1 °F 38.1 °F 39.0 °F 82% 30.00 in 10.0 mi East 11.5 mph - N/A   Overcast
8:51 PM 43.0 °F 37.7 °F 39.0 °F 86% 30.04 in 10.0 mi East 9.2 mph - N/A   Overcast
9:07 PM 42.8 °F 38.0 °F 39.2 °F 87% 30.01 in 10.0 mi East 8.1 mph - N/A   Overcast
9:51 PM 43.0 °F 37.2 °F 39.0 °F 86% 30.04 in 10.0 mi East 10.4 mph - N/A   Overcast
10:51 PM 42.1 °F 36.6 °F 39.0 °F 89% 30.02 in 10.0 mi ESE 9.2 mph - N/A   Overcast
11:15 PM 42.8 °F 38.0 °F 37.4 °F 81% 30.02 in 10.0 mi East 8.1 mph - N/A   Overcast
11:51 PM 42.1 °F 38.4 °F 39.0 °F 89% 30.06 in 10.0 mi ENE 5.8 mph - N/A   Overcast